Location: Bletchingley
(51.2333°N, 0.1000°W)
Time: 05:01:56
(UTC+00:00)

Meteor 2-11 Rocket - Pass Details

Date: 18 September 2020
Orbit: 939 x 957 km, 82.5° (Epoch: 20 October)

Event Time Altitude Azimuth Distance (km) Brightness Sun altitude
Rises 18:44:56 0° 181° (S) 3,620 7.4 -6.7°
Reaches altitude 10° 18:47:25 10° 180° (S) 2,680 6.7 -7.1°
Maximum altitude 18:53:32 74° 97° (E) 999 4.4 -8.1°
Drops below altitude 10° 18:59:42 10° 14° (NNE) 2,701 6.8 -9.0°
Sets 19:02:12 0° 12° (NNE) 3,651 7.5 -9.4°
